www.pogodaiklimat.ru

Погода и климат >> Архив погоды >> Россия >> Кировская область >> Шабалино


ПОГОДА в Шабалино

  • Прогноз погоды в Шабалино
  • Монитор погоды в Шабалино

АРХИВ ПОГОДЫ в Шабалино

Время (UTC), дата Ветер
(напр.,м/с)
 
Видим.   Явления Облачность Т
(С)
Тd
(С)
f
(%)
Тe
(С)
Тes
(С)
Комфортность P
(гПа)
Po
(гПа)
Тmin
(С)
Tmax
(С)
R
(мм)
R24
(мм)
S
(см)
12 12.05 ЮЗ 1-2
{4}
20 км {ливн. осадки} 9/3 300 м
[Cb cap Ac trans Cc]
+25.7 +15.7 54 +29 +33 душно 1022.1 1002.9
15 12.05 штиль 0
{3}
20 км 9/0
[As op Cs]
+26.1 +15.6 52 +29 +30 жарко 1021.7 1002.7 +26.5 0.0
18 12.05 С 1-1
{3}
50 км 10/0
[Ac As Cs]
+20.8 +15.8 73 +25 +25 комфорт 1022.4 1003.0
21 12.05 С 1-2
{2}
50 км 8/0
[Ac As Cs]
+17.1 +15.1 88 +18 +18 1023.0 1003.2
00 13.05 СВ 1-3
{3}
50 км 10/0
[Ac cuf Cs]
+16.9 +13.7 81 +18 +18 1022.6 1002.8
03 13.05 СЗ 1-2
{3}
20 км 9/0
[Ac cast Cc]
+16.4 +13.9 85 +17 +19 1022.4 1002.6 +15.4
06 13.05 С 2-2
{4}
20 км 8/0
[Ac trans Cc]
+23.2 +16.1 64 +28 +34 душно 1022.0 1002.6
09 13.05 СВ 2-3
{5}
20 км 9/0
[Ac As Cc]
+27.7 +15.1 46 +30 +39 жарко 1020.6 1001.6
12 13.05 В 2-4
{5}
20 км 6/3 600 м
[Cu hum Ac As Cc]
+28.3 +12.0 36 +29 +34 жарко 1019.4 1000.4
15 13.05 СВ 1-1
{5}
20 км в посл. час гроза 9/4 300 м
[Cb cap Ac As Ci fib]
+26.4 +12.9 43 +28 +29 жарко 1018.4 999.4 +29.5
18 13.05 СЗ 3-5
{6}
50 км гроза без осадков {ливн. осадки} 8/5 300 м
[Cb cap Ac As Ci ing]
+18.2 +13.6 75 +19 +19 1019.4 999.8
21 13.05 С 5-7
{9}
50 км 6/3 300 м
[Sc Cs]
+18.0 +12.8 72 +18 +18 1018.3 998.7
00 14.05 СВ 3-5
{7}
20 км 8/3 300 м
[Cb cap Ac As]
+18.0 +9.9 59 +18 +18 1017.5 997.9
03 14.05 В 1-1
{5}
20 км 9/4 300 м
[Cb cap Ac As Ci sp]
+18.0 +11.0 64 +19 +20 1017.7 998.1 +16.6 1
06 14.05 С 5-7
{8}
20 км {ливн. осадки} 9/8 300 м
[Cb cap Cs]
+20.1 +11.4 57 +22 +22 комфорт 1018.1 998.6
09 14.05 С 2-3
{7}
20 км {ливн. осадки} 9/8 300 м
[Cb cap Ac cast]
+23.0 +10.7 46 +25 +27 комфорт 1017.5 998.3
12 14.05 В 3-6
{6}
20 км {ливн. осадки} 10/6 300 м
[Cb cap Ac cuf Cs]
+24.4 +9.4 39 +25 +27 комфорт 1015.9 996.7
15 14.05 С 2-3
{8}
20 км 9/5 300 м
[Cb cap As trans Cs]
+23.6 +8.2 37 +24 +25 комфорт 1015.0 995.8 +24.8 0.0
18 14.05 СВ 2-3
{7}
50 км 9/4 300 м
[Cb cap Ac As Cc]
+19.8 +11.1 57 +22 +22 комфорт 1015.9 996.5
21 14.05 С 3-5
{6}
50 км 8/3 300 м
[Cb calv Ac trans]
+16.5 +8.9 61 +16 +16 1015.3 995.6
00 15.05 СВ 1-1
{5}
20 км 8/4 300 м
[Sc Ac As]
+13.5 +10.0 79 +14 +14 1015.2 995.4
03 15.05 ЮВ 3-5
{6}
20 км 8/4 300 м
[Sc Ac trans Cc]
+15.0 +12.6 86 +14 +15 1015.7 996.0 +13.1
06 15.05 ЮВ 3-5
{6}
20 км 9/5 300 м
[Sc Ac As Cs]
+18.0 +13.6 75 +18 +21 1016.3 996.7
09 15.05 В 3-5
{5}
20 км 9/8 300 м
[Cb cap Ci sp]
+21.4 +14.0 63 +24 +26 комфорт 1015.3 996.1
12 15.05 С 2-2
{6}
19 км гроза, ливневой дождь 9/8 300 м
[Cb cap Cs]
+19.3 +15.6 79 +22 +23 комфорт 1015.0 995.6
15 15.05 СВ 2-4
{7}
20 км гроза без осадков {ливн. осадки} 10/8 300 м
[Cb cap Ac und]
+15.7 +13.9 89 +16 +16 1016.2 996.5 +23.0 5
18 15.05 СЗ 1-2
{4}
21 км слаб. дождь {гроза} 10/10 300 м
[Frnb Ns]
+15.6 +14.6 94 +16 +16 1016.6 996.9
21 15.05 С 5-8
{8}
12 км слаб. морось {дождь} 10/10 300 м
[St]
+14.2 +13.4 95 +12 +12 1015.6 995.8
00 16.05 С 5-9
{9}
20 км {дождь, морось} 10/10 300 м
[St]
+12.6 +11.4 92 +10 +10 1015.9 996.1
03 16.05 СЗ 6-10
{10}
20 км {дождь} 10/10 300 м
[St]
+9.2 +8.6 96 +5 +5 1016.6 996.5 +8.9 4
06 16.05 С 5-8
{11}
20 км {дождь} 10/10 300 м
[Sc]
+8.4 +7.8 96 +5 +5 1017.8 997.4 +8.3
09 16.05 С 6-11
{14}
20 км 10/9 300 м
[Sc Ac und]
+11.8 +5.6 66 +9 +9 1018.4 998.4
12 16.05 С 5-8
{12}
20 км 9/8 300 м
[Sc Ac As Ci sp]
+14.2 +7.0 62 +13 +13 1018.4 998.5
15 16.05 С 6-10
{14}
20 км 8/6 300 м
[Sc Ci sp]
+12.6 +6.1 65 +10 +10 1019.5 999.5 +15.3
18 16.05 С 5-9
{13}
50 км 9/0
[Ac As]
+9.5 +0.9 55 +7 +7 1020.7 1000.5
21 16.05 СЗ 2-3
{9}
50 км 3/0
[Ac As]
+4.0 0.0 75 +1 +1 1021.5 1000.9
00 17.05 СЗ 1-2
{3}
20 км ясно +2.9 +0.2 82 +1 +1 1021.8 1001.0
03 17.05 С 4-6
{6}
20 км ясно +5.2 +1.7 78 +1 +3 1022.2 1001.6 +2.5
06 17.05 СЗ 3-7
{9}
20 км 8/8 600 м
[Cu med, cong]
+10.4 -0.9 45 +9 +10 1021.2 1001.0
09 17.05 СЗ 3-7
{9}
20 км 9/8 600 м
[Cu med, cong Cc]
+12.6 -2.5 35 +12 +14 1019.1 999.1
12 17.05 СЗ 3-6
{10}
20 км 9/8 600 м
[Cu med, cong Ci fib]
+14.4 -0.9 35 +14 +15 1016.7 996.9
15 17.05 СЗ 5-9
{11}
20 км 10/8 300 м
[Sc As op]
+13.1 -1.7 36 +11 +11 1015.3 995.3 +15.1
18 17.05 З 1-2
{10}
50 км {ливн. осадки} 8/4 300 м
[Cb cap Ac trans Ci sp]
+8.2 +7.0 92 +7 +7 1014.9 994.7
21 17.05 СЗ 1-1
{5}
50 км 6/0
[Ac trans Cs]
+5.8 +4.6 92 +5 +5 1014.8 994.4
00 18.05 СЗ 2-3
{3}
20 км 8/3 300 м
[Sc Ac As Cs]
+5.6 +4.0 89 +3 +3 1014.8 994.4
03 18.05 СЗ 4-6
{7}
20 км 4/0
[Ac trans Ci fib]
+4.6 +1.0 77 +1 +2 1015.3 994.7 +4.0 0.6
06 18.05 СЗ 5-8
{11}
20 км 9/9 600 м
[Sc]
+6.3 -4.8 45 +3 +3 1014.4 994.0
09 18.05 СЗ 6-10
{11}
20 км 10/10 300 м
[Sc]
+6.8 -4.4 45 +3 +3 1013.9 993.5
12 18.05 СЗ 4-9
{13}
20 км 9/9 600 м
[Sc]
+8.3 -3.8 42 +6 +6 1012.5 992.3
15 18.05 СЗ 4-8
{12}
20 км {ливн. осадки} 10/4 300 м
[St Ac trans]
+8.3 -1.4 50 +6 +6 1011.6 991.4 +9.9 0.0
18 18.05 СЗ 3-5
{10}
19 км слаб. дождь 10/3 300 м
[Sc diur, vesp Ac As]
+4.5 +3.0 90 +1 +1 1012.1 991.7
21 18.05 СЗ 2-4
{8}
50 км {дождь} 1/0
[Ci fib]
+3.1 -0.1 79 0 0 1012.4 991.8
00 19.05 СЗ 2-4
{5}
20 км {дождь} 3/0
[Ci fib]
+0.9 -1.4 85 -3 -3 1012.7 991.9
03 19.05 СЗ 3-7
{7}
20 км 8/0
[Ac trans Cc]
+2.5 -1.8 73 -1 -0 1012.6 992.0 +0.6 0.0
06 19.05 СЗ 6-10
{11}
20 км 10/4 300 м
[Sc Ac und]
+4.1 -3.8 56 -1 -0 1012.7 992.3

 

Местоположение метеостанции Шабалино (Кировская область, Россия): широта 58.30 долгота 47.12 высота над уровнем моря 166 м.

В архиве по умолчанию представлена погода в Шабалино за последнюю неделю. Архивные данные за месяц целиком и за предыдущие месяцы, начиная с января 2011 года, Вы можете получить, выбрав интересующий диапазон дат из раскрывающегося списка и нажав кнопку "Ввод!".


*Определитесь, кто Вы:
робот инопланетянин человек

Внимание! Время в таблицах - всемирное. Для получения местного времени необходимо прибавить поправку, которая равна 3 ч.

Смотрите также архив погоды в соседних городах и на ближайших метеорологических станциях:

Погода в Котельниче (Кировская область, Россия) (72 км)
Погода в Даровском (Кировская область, Россия) (72 км)
Погода в Вохме (Костромская область, Россия) (73 км)
Погода в Шахунье (Нижегородская область, Россия) (77 км)
Погода в Шарье (Костромская область, Россия) (93 км)
Погода в Ветлуге (Нижегородская область, Россия) (94 км)
Погода в Пыщуге (Костромская область, Россия) (104 км)
Погода в Яранске (Кировская область, Россия) (114 км)
Погода в Мантурово (Костромская область, Россия) (137 км)
Погода в Санчурске (Кировская область, Россия) (147 км)

Пояснения к столбцам:

Ветер - указаны скорость ветра в м/с - средняя за 10 мин, порывы в срок и между сроками (в фигурных скобках) и направление, откуда дует ветер: С - северный, СВ - северо-восточный, В - восточный, ЮВ - юго-восточный, Ю - южный, ЮЗ - юго-западный, З - западный, СЗ - северо-западный.
Видимость - горизонтальная дальность видимости в метрах или километрах. При видимости от 1 до 10 км при отсутствии осадков обычно наблюдается дымка, при ухудшении видимости до 1 км и менее - туман. В сухую погоду видимость может ухудшаться дымом, пылью или мглою.
Явления - указаны атмосферные явления, наблюдавшиеся в срок или в последний час перед сроком; фигурными скобками обозначены явления, наблюдавшиеся между сроками (за 1-3 часа до срока); квадратными скобками обозначены град или гололедные отложения с указанием их диаметра в мм.
Облачность - указаны через наклонную черту общая и нижняя облачность в баллах и высота нижней границы облаков в метрах; квадратными скобками обозначены формы облаков: Ci - перистые, Cs - перисто-слоистые, Cc - перисто-кучевые, Ac - высококучевые, As - высокослоистые, Sc - слоисто-кучевые, Ns - слоисто-дождевые, Cu - кучевые, Cb - кучево-дождевые. Подробнее классификацию облаков см. в Атласе облаков (PDF).
T - Температура воздуха - температура, измеренная на высоте 2 м над землей.
Td - Температура точки росы - температура, при понижении до которой содержащийся в воздухе водяной пар достигнет насыщения.
f - Относительная влажность воздуха - влажноcть воздуха, измеренная на высоте 2 м над землей.
Te - Эффективная температура - температура, которую ощущает одетый по сезону человек в тени. Характеристика душности погоды. При расчете учитывается влияние влажности воздуха и скорости ветра на теплоощущения человека.
Tes - Эффективная температура на солнце - температура, которую ощущает человек, с поправкой на солнечный нагрев. Характеристика знойности погоды. Зависит от высоты солнца над горизонтом, облачности и скорости ветра. Ночью, в пасмурную погоду, а также при ветре 12 м/с и более поправка равна нулю.
P - Атмосферное давление - приведенное к уровню моря атмосферное давление.
Po - Атмосферное давление - измеренное на уровне метеостанции атмосферное давление.
Tmin - Минимальная температура - минимум температуры воздуха на высоте 2 м над землей.
Tmax - Максимальная температура - максимум температуры воздуха на высоте 2 м над землей.
R - Количество осадков - Количество выпавших осадков за период времени, мм. При наведении курсора мыши на число - период времени, за который выпало указанное количество осадков.
R24 - Количество осадков - Количество выпавших осадков за 24 часа, мм.
S - Снежный покров - Высота снежного покрова, см. При наведении курсора мыши на число - состояние снежного покрова и степень покрытия местности в баллах.